Current conditions around Wisconsin

 

						ASUS43 KMKX 182300
RWRWI

WISCONSIN REGIONAL WEATHER ROUNDUP
NATIONAL WEATHER SERVICE MILWAUKEE/SULLIVAN WI
500 PM CST SUN NOV 18 2018

NOTE: "FAIR" INDICATES FEW OR NO CLOUDS BELOW 12,000 FEET WITH NO
SIGNIFICANT WEATHER AND/OR OBSTRUCTIONS TO VISIBILITY.

WIZ001-002-006>008-014>016-023>028-190000-
NORTHWEST WISCONSIN

CITY           SKY/WX    TMP DP  RH WIND       PRES   REMARKS
SUPERIOR ARPT  FAIR      23  15  69 CALM      30.03S
ASHLAND        FAIR      23  16  74 S3        30.05S
HAYWARD        CLOUDY    24  15  68 S6        30.02S WCI  17
SIREN          FAIR      26  13  58 S5        30.03F WCI  20
CUMBERLAND     FAIR      23  14  68 CALM      30.02F
RICE LAKE      FAIR      25  15  66 S7        30.05F WCI  17
CHETEK         FAIR      23  13  66 S6        30.05F WCI  16
LADYSMITH      FAIR      24  15  67 S5        30.06S WCI  19
EAU CLAIRE     NOT AVBL
MENOMONIE      FAIR      20   9  61 S7        30.07F WCI  11
NEW RICHMOND   FAIR      23  12  62 S7        30.05F WCI  15
OSCEOLA        FAIR      25  16  69 S9        30.08S WCI  15
$$

WIZ003>005-009-010-017-018-190000-
NORTH CENTRAL WISCONSIN

CITY           SKY/WX    TMP DP  RH WIND       PRES   REMARKS
MANITOWISH WTR MOCLDY    22  13  67 SW3       30.00S
ARBOR VITAE    FAIR      23  15  71 SW6       30.01S WCI  16
WOODRUFF       FAIR      23  15  71 SW6       30.01S WCI  16
RHINELANDER    FAIR      24  11  57 SW5       30.02S WCI  18
EAGLE RIVER    CLOUDY    22  12  65 CALM      30.00F
LAND O LAKES   CLOUDY    22  13  68 CALM      30.01F
PHILLIPS       FAIR      22  14  71 SW5       30.02S WCI  15
TOMAHAWK       FAIR      22  13  68 CALM      30.04S
MEDFORD        FAIR      20  12  69 MISG      30.04F
MERRILL        FAIR      23  14  67 SW7       30.07R WCI  15
$$

WIZ029-030-035-036-043>047-190000-
CENTRAL WISCONSIN

CITY           SKY/WX    TMP DP  RH WIND       PRES   REMARKS
WAUSAU         FAIR      23  11  60 SW5       30.06F WCI  17
MOSINEE        PTCLDY    19  12  73 S5        30.08F WCI  13
MARSHFIELD     FAIR      23   9  55 SW9       30.06F WCI  13
STEVENS POINT  FAIR      25   7  47 SW3       30.10S
WAUPACA        FAIR      28   7  40 SW6       30.12S WCI  21
WAUTOMA        FAIR      27  10  49 SW7       30.13S WCI  19
WISC RAPIDS    FAIR      25   6  44 SW8       30.11S WCI  16
CAMP DOUGLAS   FAIR      24   7  47 SW8       30.12F WCI  15
$$

WIZ011>013-019>022-031-037>040-048>050-190000-
NORTHEAST WISCONSIN

CITY           SKY/WX    TMP DP  RH WIND       PRES   REMARKS
ANTIGO         FAIR      21  13  71 SW6       30.05F WCI  14
SHAWANO        FAIR      29  10  45 SW5       30.10S WCI  24
OCONTO         FAIR      28   8  43 W6        30.10S WCI  21
STURGEON BAY   FAIR      28  13  53 SW8         N/A  WCI  20
GREEN BAY      FAIR      29  12  49 W6        30.11S WCI  23
MANITOWOC      FAIR      28  15  58 SW6       30.13S WCI  22
APPLETON       PTCLDY    27   9  46 SW7       30.09F WCI  19
CLINTONVILLE   FAIR      27   6  41 W3        30.11R
OSHKOSH        FAIR      28  12  51 SW7       30.12S WCI  21
$$

WIZ032>034-041-042-053>061-190000-
SOUTHWEST WISCONSIN

CITY           SKY/WX    TMP DP  RH WIND       PRES   REMARKS
LA CROSSE      FAIR      24   6  46 S10       30.15S WCI  14
SPARTA         FAIR      26   8  46 CALM      30.14F
VIROQUA        FAIR      21   6  53 S8        30.11F WCI  11
BOSCOBEL       FAIR      25   6  44 SW5       30.18F WCI  19
PRAIRIE DU CHI FAIR      23   1  39 W5        30.18F WCI  17
PLATTEVILLE    FAIR      21  15  77 SW7       30.18S WCI  12
$$

WIZ056-057-062-063-064-067-068-190000-
SOUTH CENTRAL WISCONSIN

CITY           SKY/WX    TMP DP  RH WIND       PRES   REMARKS
REEDSBURG      FAIR      25  10  53 SW6       30.14S WCI  18
BARABOO/DELLS  FAIR      26  12  56 SW6       30.13F WCI  19
LONE ROCK      NOT AVBL
MINERAL POINT  FAIR      25  14  63 W3        30.16S
MADISON        FAIR      28  12  51 W5        30.16S WCI  23
MIDDLETON      FAIR      28  11  49 SW8       30.17R WCI  20
WATERTOWN      FAIR      27  16  62 SW3       30.16R
MONROE         FAIR      25  13  62 W7        30.16S WCI  17
JANESVILLE     PTCLDY    27  18  69 W9        30.19S WCI  17
$$

WIZ051-052-058>065-066-070>072-190000-
SOUTHEAST WISCONSIN

CITY           SKY/WX    TMP DP  RH WIND       PRES   REMARKS
MILWAUKEE      FAIR      32  17  54 SW8       30.16S WCI  25
WAUKESHA       CLEAR     27  14  59 W6        30.16F WCI  20
MILWAUKEE/TIMM CLEAR     28  14  54 W8        30.17R WCI  20
RACINE         FAIR      30  17  58 W6        30.18S WCI  24
KENOSHA        FAIR      30  20  66 W6        30.17S WCI  24
FOND DU LAC    FAIR      28  15  58 SW6       30.14S WCI  22
SHEBOYGAN      FAIR      27  15  61 SW8       30.13S WCI  19
WEST BEND      FAIR      28  12  50 W7        30.15R WCI  21
JUNEAU         FAIR      24  13  65 SW5       30.16R WCI  18
$$

LSZ147-162-190000-
LAKE SUPERIOR

STATION/POSITION TIME  TEMP    WIND        PRES    WAVE
                       AIR SEA DIR/SP/G            HT/PER
                 (UTC) (F)     (DEG/KT/KT) (MB)    (FT/S)
DEVILS ISLAND    2200   26     240/ 10/ 15 1018.1F
SAXON HARBOR     2240   27     240/  3/  4 1017.3S
$$

LMZ867-665-643>646-190000-
LAKE MICHIGAN

STATION/POSITION TIME  TEMP    WIND        PRES    WAVE
                       AIR SEA DIR/SP/G            HT/PER
                 (UTC) (F)     (DEG/KT/KT) (MB)    (FT/S)
NORTHPORT PIER   2240   29     230/  1/  5 1018.6S
KEWAUNEE LAKESHO 2224   30     240/  5/  8 1018.7
SHEBOYGAN LAKESH 2200   32     250/ 10/ 12 1021.3R
PORT WASHINGTON  2240   31     240/  4/  7 1022.4R
MILWAUKEE LAKESH 2230   33     240/ 10/ 13   N/A
S MID LAKE BUOY  2150   36 45  260/ 16/ 17 1022.2S   2/ 3
KENOSHA   LAKESH 2200   34     250/  8/ 12 1021.7
$$

TC  - TEMPERATURE IN CELSIUS
VSB - VISIBILITY IN STATUTE MILES
WCI - WIND CHILL INDEX
HX  - HEAT INDEX




ASUS43 KMKX 182310
RWRWI

WISCONSIN REGIONAL WEATHER ROUNDUP
NATIONAL WEATHER SERVICE MILWAUKEE/SULLIVAN WI
500 PM CST SUN NOV 18 2018

NOTE: "FAIR" INDICATES FEW OR NO CLOUDS BELOW 12,000 FEET WITH NO
SIGNIFICANT WEATHER AND/OR OBSTRUCTIONS TO VISIBILITY.

WIZ001-002-006>008-014>016-023>028-190000-
NORTHWEST WISCONSIN

CITY           SKY/WX    TMP DP  RH WIND       PRES   REMARKS
SUPERIOR ARPT  FAIR      23  15  69 CALM      30.03S
ASHLAND        FAIR      23  16  74 S3        30.05S
HAYWARD        CLOUDY    24  15  68 S6        30.02S WCI  17
SIREN          FAIR      26  13  59 S3        30.03S
CUMBERLAND     FAIR      23  14  68 CALM      30.02F
RICE LAKE      FAIR      25  15  66 S7        30.05F WCI  17
CHETEK         FAIR      23  13  66 S6        30.05F WCI  16
LADYSMITH      FAIR      24  15  67 S5        30.06S WCI  19
EAU CLAIRE     FAIR      24  12  60 S8        30.07F WCI  15
MENOMONIE      FAIR      20   9  61 S7        30.07F WCI  11
NEW RICHMOND   FAIR      23  12  62 S7        30.05F WCI  15
OSCEOLA        FAIR      25  16  69 S9        30.08S WCI  15
$$

WIZ003>005-009-010-017-018-190000-
NORTH CENTRAL WISCONSIN

CITY           SKY/WX    TMP DP  RH WIND       PRES   REMARKS
MANITOWISH WTR MOCLDY    22  13  67 SW3       30.00S
ARBOR VITAE    FAIR      23  15  71 SW6       30.01S WCI  16
WOODRUFF       FAIR      23  15  71 SW6       30.01S WCI  16
RHINELANDER    FAIR      24  11  57 SW5       30.02S WCI  18
EAGLE RIVER    CLOUDY    22  12  65 CALM      30.00F
LAND O LAKES   CLOUDY    22  13  68 CALM      30.01F
PHILLIPS       FAIR      22  14  71 SW5       30.02S WCI  15
TOMAHAWK       FAIR      22  13  68 CALM      30.04S
MEDFORD        FAIR      20  12  69 MISG      30.04F
MERRILL        FAIR      23  14  67 SW7       30.07R WCI  15
$$

WIZ029-030-035-036-043>047-190000-
CENTRAL WISCONSIN

CITY           SKY/WX    TMP DP  RH WIND       PRES   REMARKS
WAUSAU         FAIR      23  11  60 SW5       30.06F WCI  17
MOSINEE        PTCLDY    19  12  73 S5        30.08F WCI  13
MARSHFIELD     FAIR      23   9  55 SW9       30.06F WCI  13
STEVENS POINT  FAIR      25   7  47 SW3       30.10S
WAUPACA        FAIR      28   7  40 SW6       30.12S WCI  21
WAUTOMA        FAIR      27  10  49 SW7       30.13S WCI  19
WISC RAPIDS    FAIR      25   6  44 SW8       30.11S WCI  16
CAMP DOUGLAS   FAIR      24   7  47 SW8       30.12F WCI  15
$$

WIZ011>013-019>022-031-037>040-048>050-190000-
NORTHEAST WISCONSIN

CITY           SKY/WX    TMP DP  RH WIND       PRES   REMARKS
ANTIGO         FAIR      21  13  71 SW6       30.05F WCI  14
SHAWANO        FAIR      29  10  45 SW5       30.10S WCI  24
OCONTO         FAIR      28   8  43 W6        30.10F WCI  22
STURGEON BAY   FAIR      28  13  53 SW8         N/A  WCI  20
GREEN BAY      FAIR      29  12  49 W6        30.11S WCI  23
MANITOWOC      FAIR      28  15  58 SW6       30.13S WCI  22
APPLETON       PTCLDY    27   9  46 SW7       30.09F WCI  19
CLINTONVILLE   FAIR      27   6  41 W3        30.11R
OSHKOSH        FAIR      28  12  51 SW7       30.12S WCI  21
$$

WIZ032>034-041-042-053>061-190000-
SOUTHWEST WISCONSIN

CITY           SKY/WX    TMP DP  RH WIND       PRES   REMARKS
LA CROSSE      FAIR      24   6  46 S10       30.15S WCI  14
SPARTA         FAIR      25   8  48 CALM      30.13F
VIROQUA        FAIR      21   6  53 S8        30.11F WCI  11
BOSCOBEL       FAIR      25   6  44 SW5       30.18F WCI  19
PRAIRIE DU CHI FAIR      23   1  39 W5        30.18F WCI  17
PLATTEVILLE    FAIR      21  15  77 SW7       30.18S WCI  12
$$

WIZ056-057-062-063-064-067-068-190000-
SOUTH CENTRAL WISCONSIN

CITY           SKY/WX    TMP DP  RH WIND       PRES   REMARKS
REEDSBURG      FAIR      25  10  53 SW6       30.14S WCI  18
BARABOO/DELLS  FAIR      26  12  56 SW6       30.13F WCI  19
LONE ROCK      FAIR      24  10  55 W5        30.17F WCI  18
MINERAL POINT  FAIR      25  16  68 SW3       30.16S
MADISON        FAIR      28  12  51 W5        30.16S WCI  23
MIDDLETON      FAIR      27  11  49 SW7       30.16S WCI  20
WATERTOWN      FAIR      27  16  62 SW3       30.16R
MONROE         FAIR      25  13  62 W7        30.16S WCI  17
JANESVILLE     PTCLDY    27  18  69 W9        30.19S WCI  17
$$

WIZ051-052-058>065-066-070>072-190000-
SOUTHEAST WISCONSIN

CITY           SKY/WX    TMP DP  RH WIND       PRES   REMARKS
MILWAUKEE      FAIR      32  17  54 SW8       30.16S WCI  25
WAUKESHA       CLEAR     27  14  59 W6        30.16F WCI  20
MILWAUKEE/TIMM CLEAR     28  14  54 W8        30.17R WCI  20
RACINE         FAIR      30  17  58 W6        30.18S WCI  24
KENOSHA        FAIR      30  20  66 W6        30.17S WCI  24
FOND DU LAC    FAIR      28  15  58 SW6       30.14S WCI  22
SHEBOYGAN      FAIR      27  15  61 SW8       30.13S WCI  19
WEST BEND      FAIR      28  12  50 W7        30.15R WCI  21
JUNEAU         FAIR      24  13  65 SW5       30.16R WCI  18
$$

LSZ147-162-190000-
LAKE SUPERIOR

STATION/POSITION TIME  TEMP    WIND        PRES    WAVE
                       AIR SEA DIR/SP/G            HT/PER
                 (UTC) (F)     (DEG/KT/KT) (MB)    (FT/S)
DEVILS ISLAND    2300   26     250/ 11/ 15 1018.2R
SAXON HARBOR     2240   27     240/  3/  4 1017.3S
$$

LMZ867-665-643>646-190000-
LAKE MICHIGAN

STATION/POSITION TIME  TEMP    WIND        PRES    WAVE
                       AIR SEA DIR/SP/G            HT/PER
                 (UTC) (F)     (DEG/KT/KT) (MB)    (FT/S)
NORTHPORT PIER   2300   24     230/  1/  5 1019.0
KEWAUNEE LAKESHO 2248   29     230/  6/  8 1018.9R
SHEBOYGAN LAKESH 2300   30     230/  9/ 11 1021.4R
PORT WASHINGTON  2240   31     240/  4/  7 1022.4R
MILWAUKEE LAKESH 2250   33     260/ 10/ 12   N/A
S MID LAKE BUOY  2250   36 45  260/ 14/ 17 1022.3R   2/ 3
KENOSHA   LAKESH 2300   33     260/  4/  5 1022.0
$$

TC  - TEMPERATURE IN CELSIUS
VSB - VISIBILITY IN STATUTE MILES
WCI - WIND CHILL INDEX
HX  - HEAT INDEX




ASUS43 KMKX 182320
RWRWI

WISCONSIN REGIONAL WEATHER ROUNDUP
NATIONAL WEATHER SERVICE MILWAUKEE/SULLIVAN WI
500 PM CST SUN NOV 18 2018

NOTE: "FAIR" INDICATES FEW OR NO CLOUDS BELOW 12,000 FEET WITH NO
SIGNIFICANT WEATHER AND/OR OBSTRUCTIONS TO VISIBILITY.

WIZ001-002-006>008-014>016-023>028-190000-
NORTHWEST WISCONSIN

CITY           SKY/WX    TMP DP  RH WIND       PRES   REMARKS
SUPERIOR ARPT  FAIR      22  14  72 CALM      30.03F
ASHLAND        FAIR      23  16  74 S3        30.05S
HAYWARD        CLOUDY    24  15  68 S6        30.02S WCI  17
SIREN          FAIR      26  13  59 S3        30.03S
CUMBERLAND     FAIR      23  14  68 CALM      30.02F
RICE LAKE      FAIR      24  15  68 S7        30.05F WCI  16
CHETEK         FAIR      23  14  67 S6        30.05F WCI  16
LADYSMITH      FAIR      24  15  69 S5        30.06S WCI  18
EAU CLAIRE     FAIR      24  12  60 S8        30.07F WCI  15
MENOMONIE      FAIR      20   8  59 S8        30.07F WCI  10
NEW RICHMOND   FAIR      23  12  63 SW8       30.05F WCI  14
OSCEOLA        FAIR      25  16  69 S6        30.08S WCI  18
$$

WIZ003>005-009-010-017-018-190000-
NORTH CENTRAL WISCONSIN

CITY           SKY/WX    TMP DP  RH WIND       PRES   REMARKS
MANITOWISH WTR FAIR      22  13  69 SW3       30.01R
ARBOR VITAE    FAIR      23  15  71 SW5       30.01R WCI  17
WOODRUFF       FAIR      23  15  71 SW5       30.01R WCI  17
RHINELANDER    FAIR      24  11  57 SW5       30.02S WCI  18
EAGLE RIVER    CLOUDY    22  13  67 CALM      30.01S
LAND O LAKES   CLOUDY    22  13  69 CALM      30.02S
PHILLIPS       CLOUDY    21  14  72 S3        30.02S
TOMAHAWK       MOCLDY    22  13  67 CALM      30.05R
MEDFORD        FAIR      20  12  71 MISG      30.04S
MERRILL        FAIR      23  13  66 SW6       30.06F WCI  15
$$

WIZ029-030-035-036-043>047-190000-
CENTRAL WISCONSIN

CITY           SKY/WX    TMP DP  RH WIND       PRES   REMARKS
WAUSAU         FAIR      23  11  60 SW5       30.06F WCI  17
MOSINEE        PTCLDY    19  12  73 S5        30.08F WCI  13
MARSHFIELD     FAIR      23   9  55 SW9       30.06F WCI  13
STEVENS POINT  FAIR      24   7  48 SW3       30.09F
WAUPACA        FAIR      27   8  43 SW3       30.12S
WAUTOMA        FAIR      27  10  49 SW7       30.13S WCI  19
WISC RAPIDS    FAIR      25   6  44 SW8       30.11S WCI  16
CAMP DOUGLAS   FAIR      24   7  47 SW8       30.12F WCI  15
$$

WIZ011>013-019>022-031-037>040-048>050-190000-
NORTHEAST WISCONSIN

CITY           SKY/WX    TMP DP  RH WIND       PRES   REMARKS
ANTIGO         FAIR      20  12  72 SW5       30.05S WCI  13
SHAWANO        FAIR      29  10  46 CALM      30.10S
OCONTO         FAIR      28   8  43 W6        30.10F WCI  22
STURGEON BAY   FAIR      28  13  53 SW8         N/A  WCI  20
GREEN BAY      FAIR      29  12  49 W6        30.11S WCI  23
MANITOWOC      FAIR      28  15  58 SW6       30.13S WCI  22
APPLETON       PTCLDY    27   9  46 SW7       30.09F WCI  19
CLINTONVILLE   FAIR      27   7  41 CALM      30.10F
OSHKOSH        FAIR      28  12  51 SW7       30.12S WCI  21
$$

WIZ032>034-041-042-053>061-190000-
SOUTHWEST WISCONSIN

CITY           SKY/WX    TMP DP  RH WIND       PRES   REMARKS
LA CROSSE      FAIR      24   6  46 S10       30.15S WCI  14
SPARTA         FAIR      25   8  48 CALM      30.13F
VIROQUA        FAIR      20   5  54 SW8       30.12S WCI  10
BOSCOBEL       FAIR      25   6  44 SW5       30.18F WCI  19
PRAIRIE DU CHI FAIR      22   1  41 W5        30.19S WCI  15
PLATTEVILLE    FAIR      21  14  76 SW5       30.17F WCI  14
$$

WIZ056-057-062-063-064-067-068-190000-
SOUTH CENTRAL WISCONSIN

CITY           SKY/WX    TMP DP  RH WIND       PRES   REMARKS
REEDSBURG      FAIR      24  10  54 SW5       30.14S WCI  18
BARABOO/DELLS  FAIR      24  12  59 SW7       30.13S WCI  16
LONE ROCK      FAIR      24  10  55 W5        30.17F WCI  18
MINERAL POINT  FAIR      25  16  68 SW3       30.16S
MADISON        FAIR      28  12  51 W5        30.16S WCI  23
MIDDLETON      FAIR      27  11  49 SW7       30.16S WCI  20
WATERTOWN      FAIR      26  15  63 SW5       30.16R WCI  21
MONROE         FAIR      25  14  63 SW6       30.16S WCI  18
JANESVILLE     PTCLDY    27  18  69 W9        30.19S WCI  17
$$

WIZ051-052-058>065-066-070>072-190000-
SOUTHEAST WISCONSIN

CITY           SKY/WX    TMP DP  RH WIND       PRES   REMARKS
MILWAUKEE      FAIR      32  17  54 SW8       30.16S WCI  25
WAUKESHA       CLEAR     27  14  59 W6        30.16F WCI  20
MILWAUKEE/TIMM CLEAR     28  14  54 W8        30.17R WCI  20
RACINE         FAIR      30  17  58 W6        30.18S WCI  24
KENOSHA        FAIR      30  20  66 W6        30.17S WCI  24
FOND DU LAC    FAIR      28  15  58 SW6       30.14S WCI  22
SHEBOYGAN      FAIR      27  15  61 SW8       30.13S WCI  19
WEST BEND      FAIR      28  12  50 W6        30.14F WCI  22
JUNEAU         FAIR      24  15  67 SW5       30.15F WCI  19
$$

LSZ147-162-190000-
LAKE SUPERIOR

STATION/POSITION TIME  TEMP    WIND        PRES    WAVE
                       AIR SEA DIR/SP/G            HT/PER
                 (UTC) (F)     (DEG/KT/KT) (MB)    (FT/S)
DEVILS ISLAND    2300   26     250/ 11/ 15 1018.2R
SAXON HARBOR     2240   27     240/  3/  4 1017.3S
$$

LMZ867-665-643>646-190000-
LAKE MICHIGAN

STATION/POSITION TIME  TEMP    WIND        PRES    WAVE
                       AIR SEA DIR/SP/G            HT/PER
                 (UTC) (F)     (DEG/KT/KT) (MB)    (FT/S)
CHAMBERS ISLAND  2240   30     220/  7/ 11 1017.9S
NORTHPORT PIER   2300   24     230/  1/  5 1019.0
KEWAUNEE LAKESHO 2254   29     230/  5/  8 1018.9R
SHEBOYGAN LAKESH 2300   30     230/  9/ 11 1021.4R
PORT WASHINGTON  2240   31     240/  4/  7 1022.4R
MILWAUKEE LAKESH 2300   33     270/  9/ 10   N/A
S MID LAKE BUOY  2250   36 45  260/ 14/ 17 1022.3R   2/ 3
KENOSHA   LAKESH 2300   33     260/  4/  5 1022.0
$$

TC  - TEMPERATURE IN CELSIUS
VSB - VISIBILITY IN STATUTE MILES
WCI - WIND CHILL INDEX
HX  - HEAT INDEX